Regional Weather Roundup
Issued by NWS

Home | Current Version | Previous Version | Text Only | Print | Product List | Glossary On
Versions: 1 2 3 4 5 6 7 8 9 10 11 12 13 14 15 16 17 18 19 20 21 22 23 24 25 26 27 28 29 30 31 32 33 34 35 36 37 38 39 40 41 42 43 44 45 46 47 48 49 50
000
ASUS43 KMPX 312110
RWRMN
WEATHER ROUNDUP FOR MINNESOTA
NATIONAL WEATHER SERVICE TWIN CITIES/CHANHASSEN MN
400 PM CDT FRI JUL 31 2015


NOTE: "FAIR" INDICATES FEW OR NO CLOUDS BELOW 12,000 FEET WITH NO
SIGNIFICANT WEATHER AND/OR OBSTRUCTIONS TO VISIBILITY. N/A MEANS
CURRENT SKY AND/OR WEATHER CONDITIONS ARE NOT AVAILABLE.

MNZ060>063-068>070-312200-
   Twin Cities Metro

CITY           SKY/WX    TMP DP  RH WIND       PRES   REMARKS
TWIN CITIES    MOSUNNY   81  51  35 NW18G29   30.01F
ST PAUL        MOSUNNY   82  49  31 NW18G29   30.00F
CRYSTAL        MOSUNNY   83  52  34 NW10G24   30.00F
BLAINE         MOSUNNY   82  48  30 NW18G30   30.01F
LAKEVILLE      SUNNY     79  54  41 NW10G22   30.03F
EDEN PRAIRIE   SUNNY     82  53  36 NW16G26   30.02F
SOUTH ST PAUL  MOSUNNY   82  47  29 NW14G23   30.01F
LAKE ELMO      FAIR      79  52  38 NW16G22   30.02F
$$
MNZ001>005-007-008-013>017-022>024-027-028-312200-
   Northwest Minnesota

CITY           SKY/WX    TMP DP  RH WIND       PRES   REMARKS
BEMIDJI        MOSUNNY   77  48  35 W23G30    30.00F
HALLOCK        SUNNY     79  48  34 NW14G22   29.98F
ROSEAU         SUNNY     75  54  46 NW17G29   29.96S
WARROAD        MOSUNNY   75  55  50 W16G25    29.95S
THIEF RVR FALL MOSUNNY   77  48  36 W14G20    30.00F
CROOKSTON      MOSUNNY   81  48  32 NW17G25   30.01F
FOSSTON        SUNNY     79  48  34 NW18      30.02F
DETROIT LAKES  SUNNY     79  50  36 NW17G23   30.05F
MOORHEAD       SUNNY     81  55  41 W10G20    30.04F
PARK RAPIDS    SUNNY     80  45  28 NW22G28   30.02F
MAHNOMEN       FAIR      76  53  43 NW12G17   30.02F
$$
MNZ006-009>011-018-025>026-312200-
   North Central Minnesota

CITY           SKY/WX    TMP DP  RH WIND       PRES   REMARKS
BAUDETTE       PTSUNNY   77  51  40 W21G31    29.93F
FLAG ISLAND    MOSUNNY   73  54  49 W25       29.91S
INTL FALLS     PTSUNNY   75  52  44 W21G32    29.90F
WASKISH        MOSUNNY   75  54  46 W18G28    29.96F
BIG FORK       SUNNY     75  48  38 W10G20    29.95F
LONGVILLE      SUNNY     77  48  36 W15G26    30.00S
GRAND RAPIDS   MOSUNNY   77  48  36 W21G29    29.97F
CRANE LAKE     CLOUDY    70  52  52 W9G16     29.92S
ORR            MOSUNNY   75  46  35 W14G22    29.90S
COOK           MOSUNNY   75  50  41 W21G26    29.93S
WALKER         FAIR      77  49  36 W17G25    30.00F
$$
MNZ012-019>021-037-312200-
   Northeast Minnesota

CITY           SKY/WX    TMP DP  RH WIND       PRES   REMARKS
DULUTH         MOSUNNY   78  51  38 W24G31    29.93F
ELY            PTSUNNY   70  57  64 NW7       29.90F
HIBBING        CLOUDY    76  51  41 W16G25    29.94F
EVELETH        MOSUNNY   73  50  43 NW18G26   29.94F
DULUTH HARBOR  PTSUNNY   79  54  41 W21G31    29.92S
TWO HARBORS    LGT RAIN  75  59  57 W10G24    29.89S
SILVER BAY     MOSUNNY   73  57  56 CALM      29.89F
GRAND MARAIS     N/A     77  53  43 NW10G18   29.85S
G MARAIS ARPRT MOSUNNY   64  50  59 W10G18    29.90S
$$
MNZ029>031-032-039>041-046>048-054>057-064-312200-
   West Central Minnesota

CITY           SKY/WX    TMP DP  RH WIND       PRES   REMARKS
FERGUS FALLS   SUNNY     79  55  44 NW13      30.04F
WHEATON        SUNNY     79  55  44 NW8       30.07F
MORRIS         SUNNY     82  57  42 W8        30.06F
ALEXANDRIA     SUNNY     80  54  40 NW13      30.07F
ELBOW LAKE     FAIR      79  57  47 W8        30.06F
WADENA         SUNNY     79  52  38 NW18      30.04S
GLENWOOD       SUNNY     81  54  39 NW15      30.07F
APPLETON       SUNNY     82  50  32 NW7       30.06F
BENSON         SUNNY     82  50  32 NW9       30.07F
ORTONVILLE     SUNNY     82  52  34 NW5       30.07F
MADISON        SUNNY     82  52  34 N5        30.07F
WILLMAR        FAIR      82  55  39 W10       30.08F
$$
MNZ033>034-036-042>043-049>051-058-059-312200-
   Central Minnesota

CITY           SKY/WX    TMP DP  RH WIND       PRES   REMARKS
ST CLOUD       SUNNY     81  49  32 NW20G32   30.02F
SAUK CENTRE    FAIR      79  54  41 W16       30.06S
PAYNESVILLE    SUNNY     77  52  40 W12G17    30.06F
AITKIN         MOSUNNY   79  48  34 NW12G17   29.98F
PINE RIVER     MOSUNNY   79  50  36 W10G18    30.03F
BRAINERD       MOSUNNY   79  46  31 W15G26    30.01F
STAPLES        MOSUNNY   81  46  30 W21       30.03S
LONG PRAIRIE   FAIR      79  52  38 NW14G23   30.05F
LITTLE FALLS   SUNNY     79  45  29 NW10G20   30.02F
LITCHFIELD     SUNNY     81  54  39 NW13      30.06F
BUFFALO        SUNNY     81  49  33 W15G24    30.04F
MAPLE LAKE     SUNNY     81  55  41 NW12      30.05F
$$
MNZ037-044-045-052-053-312200-
   East Central Minnesota

CITY           SKY/WX    TMP DP  RH WIND       PRES   REMARKS
PRINCETON      SUNNY     82  48  30 W17G23    30.01F
MORA           MOSUNNY   77  46  33 NW13G25   30.01F
CAMBRIDGE      SUNNY     82  57  42 W12G24    29.99F
RUSH CITY      MOSUNNY   78  50  37 NW7G17    30.00F
MOOSE LAKE     MOSUNNY   77  48  36 W15G24    29.96S
HINCKLEY       FAIR      79  50  36 W12G22    29.99S
CLOQUET        MOSUNNY   79  45  29 NW21      29.95F
MCGREGOR       MOSUNNY   79  46  31 NW14G23   29.99S
$$
MNZ071>073-080-081-089-090-097-098-312200-
   Southwest Minnesota

CITY           SKY/WX    TMP DP  RH WIND       PRES   REMARKS
MONTEVIDEO     SUNNY     84  57  39 N7        30.09F
GRANITE FALLS  SUNNY     81  57  44 W7        30.09F
CANBY          SUNNY     82  56  41 NE3       30.09F
MARSHALL       SUNNY     81  54  39 CALM      30.10F
REDWOOD FALLS  SUNNY     83  55  38 NW8       30.07F
OLIVIA         SUNNY     77  52  41 W10G16    30.07F
PIPESTONE      SUNNY     81  54  39 CALM      30.11F
WINDOM         SUNNY     81  52  36 CALM      30.10F
WORTHINGTON    SUNNY     81  54  39 CALM      30.11F
JACKSON        SUNNY     82  52  34 NW9       30.11F
TRACY          SUNNY     82  54  36 N3        30.10F
SLAYTON        SUNNY     82  50  32 CALM      30.12F
$$
MNZ065>067-074>077-082>085-091>093-312200-
   South Central Minnesota

CITY           SKY/WX    TMP DP  RH WIND       PRES   REMARKS
MANKATO        SUNNY     81  54  39 NW15      30.06F
NEW ULM        SUNNY     81  54  39 NW6       30.07F
ST JAMES       SUNNY     82  59  44 NW9       30.09F
FAIRMONT       SUNNY     81  54  39 NW14      30.09F
GLENCOE        SUNNY     81  56  43 NW13G23   30.05F
FARIBAULT      SUNNY     79  55  44 NW10G17   30.06S
OWATONNA       SUNNY     81  55  41 NW16      30.06F
WASECA         SUNNY     79  57  47 W13       30.08F
ALBERT LEA     SUNNY     81  55  41 NW10G17   30.07F
$$
MNZ078>079-086>088-094>096-312200-
   Southeast Minnesota

CITY           SKY/WX    TMP DP  RH WIND       PRES   REMARKS
ROCHESTER      SUNNY     77  56  48 NW21      30.05F
RED WING       MOSUNNY   84  46  26 NW14G21   29.99F
STANTON        SUNNY     81  54  39 NW13      30.02F
DODGE CENTER   SUNNY     79  54  41 NW16G25   30.06F
WINONA         MOSUNNY   81  50  34 NW13      30.01S
AUSTIN         SUNNY     81  55  41 NW10G16   30.06F
PRESTON        SUNNY     77  52  42 NW21      30.05F
$$
ABBREVIATIONS USED IN REMARKS
   TC - TEMPERATURES IN CELSIUS
  WCI - WIND CHILL INDEX
   HX - HEAT INDEX
  VSB - VISIBILITY
$$



USA.gov is the U.S. government's official web portal to all federal, state and local government web resources and services.